User: anonymous   Login
Location: Handeloh
(53.2500°N, 9.8330°E)
Time: 05:47:43
(UTC+01:00)
Language:

S-56A Canister/Altair - Orbit

View from above orbital plane
View from above orbital plane
View from above satellite
View from above satellite

Ground track
Ground track

The orbit data is extracted from the following two-line orbital elements,

1    82U 61004B   19318.99150543 +.00000002 +00000-0 +47467-4 0  9993
2    82 038.8554 276.1864 1173611 123.6950 248.1226 12.26055824781360
Epoch (UTC): 14 November 2019 23:47:46
Eccentricity: 0.1173611
inclination: 38.8554°
perigee height: 634 km
apogee height: 2498 km
right ascension of ascending node: 276.1864°
argument of perigee: 123.6950°
revolutions per day: 12.26055824
mean anomaly at epoch: 248.1226°
orbit number at epoch: 78136

The dashed part of the orbit path shows where the satellite is in the earth's shadow,  

DLR